Terug naar catalogus

STARLINK-5503

ActiefCommunicatieVLEO
NORAD 57257·PAYLOAD·🇺🇸 United States

Gelanceerd Jul 7, 2023 vanaf Vandenberg Space Force Base

Loading…

Volgende Passages (komende 24 uur)

TLE

VersSource: CelesTrak SupGP

Epoch: Sep 15, 2026, 02:03 UTC

1 57257C 23094AR  26258.08590278 -.00035393  00000+0 -12819-2 0  2581
2 57257  43.0027  30.2592 0001364 263.5825 176.3262 15.27597296    11

Volg STARLINK-5503 in realtime met AllMySat

Download on the App Store